Time,TemperatureF,DewpointF,PressureIn,WindDirection,WindDirectionDegrees,WindSpeedMPH,WindSpeedGustMPH,Humidity,HourlyPrecipIn,Conditions,Clouds,dailyrainin,SoftwareType,DateUTC
2013-01-16 00:02:00,25.0,18.0,-100.00,SW,222,19.0,26.0,72,0.00,,,-99.99,,2013-01-16 07:02:00,
2013-01-16 00:12:00,26.0,17.0,-100.00,SW,217,19.0,26.0,70,0.00,,,-99.99,,2013-01-16 07:12:00,
2013-01-16 00:22:00,24.0,16.0,-100.00,SSW,213,23.0,32.0,70,0.00,,,-99.99,,2013-01-16 07:22:00,
2013-01-16 00:32:00,25.0,16.0,-100.00,SW,216,25.0,32.0,70,0.00,,,-99.99,,2013-01-16 07:32:00,
2013-01-16 00:42:00,25.0,17.0,-100.00,SW,217,28.0,35.0,70,0.00,,,-99.99,,2013-01-16 07:42:00,
2013-01-16 00:52:00,24.0,16.0,-100.00,SSW,213,26.0,36.0,69,0.00,,,-99.99,,2013-01-16 07:52:00,
2013-01-16 01:02:00,26.0,17.0,-100.00,SSW,212,24.0,31.0,69,0.00,,,-99.99,,2013-01-16 08:02:00,
2013-01-16 01:12:00,25.0,16.0,-100.00,SSW,210,24.0,32.0,68,0.00,,,-99.99,,2013-01-16 08:12:00,
2013-01-16 01:22:00,24.0,16.0,-100.00,SSW,209,22.0,29.0,68,0.00,,,-99.99,,2013-01-16 08:22:00,
2013-01-16 01:32:00,24.0,15.0,-100.00,SSW,210,22.0,29.0,68,0.00,,,-99.99,,2013-01-16 08:32:00,
2013-01-16 01:42:00,24.0,15.0,-100.00,SSW,213,22.0,29.0,67,0.00,,,-99.99,,2013-01-16 08:42:00,
2013-01-16 01:52:00,25.0,15.0,-100.00,SSW,212,21.0,29.0,65,0.00,,,-99.99,,2013-01-16 08:52:00,
2013-01-16 02:02:00,26.0,15.0,-100.00,SW,215,22.0,31.0,65,0.00,,,-99.99,,2013-01-16 09:02:00,
2013-01-16 02:11:00,26.0,15.0,-100.00,SW,215,21.0,29.0,64,0.00,,,-99.99,,2013-01-16 09:11:00,
2013-01-16 02:22:00,25.0,15.0,-100.00,SSW,205,22.0,29.0,65,0.00,,,-99.99,,2013-01-16 09:22:00,
2013-01-16 02:32:00,24.0,14.0,-100.00,SSW,208,21.0,32.0,66,0.00,,,-99.99,,2013-01-16 09:32:00,
2013-01-16 02:42:00,24.0,14.0,-100.00,SSW,206,23.0,32.0,66,0.00,,,-99.99,,2013-01-16 09:42:00,
2013-01-16 02:52:00,23.0,14.0,-100.00,SSW,210,22.0,29.0,67,0.00,,,-99.99,,2013-01-16 09:52:00,
2013-01-16 03:02:00,23.0,14.0,-100.00,SW,220,19.0,26.0,68,0.00,,,-99.99,,2013-01-16 10:02:00,
2013-01-16 03:12:00,23.0,14.0,-100.00,SW,223,19.0,26.0,68,0.00,,,-99.99,,2013-01-16 10:12:00,
2013-01-16 03:22:00,24.0,14.0,-100.00,SW,217,20.0,29.0,65,0.00,,,-99.99,,2013-01-16 10:22:00,
2013-01-16 03:32:00,24.0,14.0,-100.00,SSW,213,21.0,28.0,64,0.00,,,-99.99,,2013-01-16 10:32:00,
2013-01-16 03:42:00,24.0,13.0,-100.00,SW,215,19.0,26.0,65,0.00,,,-99.99,,2013-01-16 10:42:00,
2013-01-16 03:52:00,24.0,14.0,-100.00,SSW,213,19.0,27.0,64,0.00,,,-99.99,,2013-01-16 10:52:00,
2013-01-16 04:02:00,25.0,14.0,-100.00,SW,219,17.0,23.0,64,0.00,,,-99.99,,2013-01-16 11:02:00,
2013-01-16 04:12:00,24.0,14.0,-100.00,SW,222,17.0,27.0,64,0.00,,,-99.99,,2013-01-16 11:12:00,
2013-01-16 04:22:00,24.0,14.0,-100.00,SSW,212,19.0,27.0,64,0.00,,,-99.99,,2013-01-16 11:22:00,
2013-01-16 04:32:00,24.0,14.0,-100.00,SSW,213,18.0,25.0,64,0.00,,,-99.99,,2013-01-16 11:32:00,
2013-01-16 04:42:00,24.0,14.0,-100.00,SSW,208,19.0,26.0,63,0.00,,,-99.99,,2013-01-16 11:42:00,
2013-01-16 04:52:00,24.0,14.0,-100.00,SSW,206,17.0,23.0,63,0.00,,,-99.99,,2013-01-16 11:52:00,
2013-01-16 05:03:00,24.0,13.0,-100.00,SSW,209,15.0,26.0,63,0.00,,,-99.99,,2013-01-16 12:03:00,
2013-01-16 05:12:00,24.0,14.0,-100.00,SSW,209,15.0,22.0,63,0.00,,,-99.99,,2013-01-16 12:12:00,
2013-01-16 05:22:00,24.0,13.0,-100.00,SSW,209,17.0,22.0,64,0.00,,,-99.99,,2013-01-16 12:22:00,
2013-01-16 05:33:00,24.0,13.0,-100.00,SSW,209,17.0,24.0,64,0.00,,,-99.99,,2013-01-16 12:33:00,
2013-01-16 05:43:00,24.0,13.0,-100.00,SSW,208,17.0,23.0,63,0.00,,,-99.99,,2013-01-16 12:43:00,
2013-01-16 05:53:00,24.0,13.0,-100.00,SSW,205,17.0,24.0,63,0.00,,,-99.99,,2013-01-16 12:53:00,
2013-01-16 06:03:00,24.0,13.0,-100.00,SSW,205,19.0,26.0,64,0.00,,,-99.99,,2013-01-16 13:03:00,
2013-01-16 06:12:00,24.0,13.0,-100.00,SSW,203,20.0,24.0,64,0.00,,,-99.99,,2013-01-16 13:12:00,
2013-01-16 06:22:00,24.0,13.0,-100.00,SSW,202,20.0,29.0,64,0.00,,,-99.99,,2013-01-16 13:22:00,
2013-01-16 06:33:00,24.0,13.0,-100.00,SSW,202,21.0,28.0,64,0.00,,,-99.99,,2013-01-16 13:33:00,
2013-01-16 06:42:00,24.0,13.0,-100.00,SSW,200,20.0,26.0,64,0.00,,,-99.99,,2013-01-16 13:42:00,
2013-01-16 06:52:00,24.0,14.0,-100.00,SSW,203,19.0,26.0,63,0.00,,,-99.99,,2013-01-16 13:52:00,
2013-01-16 07:03:00,25.0,14.0,-100.00,SSW,206,19.0,25.0,63,0.00,,,-99.99,,2013-01-16 14:03:00,
2013-01-16 07:12:00,25.0,14.0,-100.00,SSW,206,19.0,25.0,63,0.00,,,-99.99,,2013-01-16 14:12:00,
2013-01-16 07:22:00,25.0,14.0,-100.00,SSW,209,15.0,21.0,64,0.00,,,-99.99,,2013-01-16 14:22:00,
2013-01-16 07:33:00,25.0,14.0,-100.00,SSW,210,13.0,19.0,63,0.00,,,-99.99,,2013-01-16 14:33:00,
2013-01-16 07:42:00,25.0,14.0,-100.00,SSW,210,9.0,17.0,63,0.00,,,-99.99,,2013-01-16 14:42:00,
2013-01-16 07:53:00,18.0,11.0,-100.00,SSE,167,7.0,14.0,72,0.00,,,-99.99,,2013-01-16 14:53:00,
2013-01-16 08:03:00,15.0,9.0,-100.00,ENE,73,9.0,16.0,77,0.00,,,-99.99,,2013-01-16 15:03:00,
2013-01-16 08:12:00,14.0,9.0,-100.00,ENE,65,10.0,17.0,81,0.00,,,-99.99,,2013-01-16 15:12:00,
2013-01-16 08:22:00,15.0,10.0,-100.00,ENE,66,12.0,18.0,80,0.00,,,-99.99,,2013-01-16 15:22:00,
2013-01-16 08:33:00,16.0,10.0,-100.00,ENE,73,9.0,17.0,76,0.00,,,-99.99,,2013-01-16 15:33:00,
2013-01-16 08:43:00,17.0,11.0,-100.00,East,85,9.0,17.0,78,0.00,,,-99.99,,2013-01-16 15:43:00,
2013-01-16 08:52:00,18.0,12.0,-100.00,East,79,7.0,11.0,74,0.00,,,-99.99,,2013-01-16 15:52:00,
2013-01-16 09:03:00,18.0,11.0,-100.00,NE,52,7.0,12.0,74,0.00,,,-99.99,,2013-01-16 16:03:00,
2013-01-16 09:12:00,19.0,12.0,-100.00,NE,49,6.0,9.0,74,0.00,,,-99.99,,2013-01-16 16:12:00,
2013-01-16 09:22:00,19.0,12.0,-100.00,NE,56,8.0,11.0,74,0.00,,,-99.99,,2013-01-16 16:22:00,
2013-01-16 09:33:00,20.0,12.0,-100.00,ENE,69,7.0,11.0,72,0.00,,,-99.99,,2013-01-16 16:33:00,
2013-01-16 09:52:00,21.0,13.0,-100.00,ENE,69,7.0,9.0,70,0.00,,,-99.99,,2013-01-16 16:52:00,
2013-01-16 10:03:00,21.0,13.0,-100.00,ENE,69,7.0,11.0,70,0.00,,,-99.99,,2013-01-16 17:03:00,
2013-01-16 10:12:00,22.0,13.0,-100.00,ENE,69,7.0,11.0,68,0.00,,,-99.99,,2013-01-16 17:12:00,
2013-01-16 10:22:00,23.0,13.0,-100.00,ENE,69,5.0,8.0,67,0.00,,,-99.99,,2013-01-16 17:22:00,
2013-01-16 10:33:00,22.0,13.0,-100.00,ENE,69,7.0,9.0,67,0.00,,,-99.99,,2013-01-16 17:33:00,
2013-01-16 10:43:00,24.0,14.0,-100.00,ENE,69,6.0,9.0,66,0.00,,,-99.99,,2013-01-16 17:43:00,
2013-01-16 10:53:00,24.0,14.0,-100.00,ENE,64,6.0,9.0,65,0.00,,,-99.99,,2013-01-16 17:53:00,
2013-01-16 11:03:00,25.0,14.0,-100.00,ENE,62,5.0,7.0,64,0.00,,,-99.99,,2013-01-16 18:03:00,
2013-01-16 11:12:00,26.0,15.0,-100.00,ENE,62,4.0,9.0,63,0.00,,,-99.99,,2013-01-16 18:12:00,
2013-01-16 11:23:00,27.0,15.0,-100.00,NE,56,4.0,7.0,61,0.00,,,-99.99,,2013-01-16 18:23:00,
2013-01-16 11:33:00,25.0,15.0,-100.00,NE,45,5.0,9.0,65,0.00,,,-99.99,,2013-01-16 18:33:00,
2013-01-16 11:42:00,26.0,15.0,-100.00,North,10,7.0,15.0,63,0.00,,,-99.99,,2013-01-16 18:42:00,
2013-01-16 11:53:00,26.0,15.0,-100.00,North,350,8.0,11.0,64,0.00,,,-99.99,,2013-01-16 18:53:00,
2013-01-16 12:03:00,25.0,15.0,-100.00,North,350,7.0,10.0,64,0.00,,,-99.99,,2013-01-16 19:03:00,
2013-01-16 12:12:00,25.0,15.0,-100.00,North,350,7.0,10.0,64,0.00,,,-99.99,,2013-01-16 19:12:00,
2013-01-16 12:23:00,26.0,15.0,-100.00,North,350,8.0,11.0,62,0.00,,,-99.99,,2013-01-16 19:23:00,
2013-01-16 12:33:00,27.0,16.0,-100.00,North,350,8.0,11.0,63,0.00,,,-99.99,,2013-01-16 19:33:00,
2013-01-16 12:42:00,27.0,15.0,-100.00,North,349,7.0,10.0,60,0.00,,,-99.99,,2013-01-16 19:42:00,
2013-01-16 12:52:00,27.0,15.0,-100.00,North,350,6.0,9.0,60,0.00,,,-99.99,,2013-01-16 19:52:00,
2013-01-16 13:03:00,26.0,15.0,-100.00,North,350,9.0,12.0,61,0.00,,,-99.99,,2013-01-16 20:03:00,
2013-01-16 13:12:00,26.0,16.0,-100.00,North,350,11.0,14.0,66,0.00,,,-99.99,,2013-01-16 20:12:00,
2013-01-16 13:23:00,26.0,15.0,-100.00,North,350,9.0,12.0,63,0.00,,,-99.99,,2013-01-16 20:23:00,
2013-01-16 13:33:00,27.0,15.0,-100.00,North,350,6.0,11.0,60,0.00,,,-99.99,,2013-01-16 20:33:00,
2013-01-16 13:42:00,28.0,16.0,-100.00,North,350,6.0,8.0,61,0.00,,,-99.99,,2013-01-16 20:42:00,
2013-01-16 13:53:00,29.0,16.0,-100.00,North,350,5.0,7.0,58,0.00,,,-99.99,,2013-01-16 20:53:00,
2013-01-16 14:03:00,29.0,15.0,-100.00,North,350,5.0,7.0,57,0.00,,,-99.99,,2013-01-16 21:03:00,
2013-01-16 14:12:00,28.0,16.0,-100.00,North,350,6.0,7.0,58,0.00,,,-99.99,,2013-01-16 21:12:00,
2013-01-16 14:22:00,28.0,16.0,-100.00,North,350,7.0,10.0,60,0.00,,,-99.99,,2013-01-16 21:22:00,
2013-01-16 14:33:00,29.0,16.0,-100.00,North,350,6.0,9.0,58,0.00,,,-99.99,,2013-01-16 21:33:00,
2013-01-16 14:43:00,30.0,17.0,-100.00,North,350,4.0,8.0,58,0.00,,,-99.99,,2013-01-16 21:43:00,
2013-01-16 14:52:00,35.0,16.0,-100.00,North,350,2.0,4.0,45,0.00,,,-99.99,,2013-01-16 21:52:00,
2013-01-16 15:02:00,33.0,16.0,-100.00,North,352,4.0,5.0,48,0.00,,,-99.99,,2013-01-16 22:02:00,
2013-01-16 15:12:00,33.0,15.0,-100.00,North,350,3.0,5.0,47,0.00,,,-99.99,,2013-01-16 22:12:00,
2013-01-16 15:22:00,35.0,15.0,-100.00,NW,306,2.0,7.0,42,0.00,,,-99.99,,2013-01-16 22:22:00,
2013-01-16 15:33:00,34.0,17.0,-100.00,NW,305,3.0,7.0,48,0.00,,,-99.99,,2013-01-16 22:33:00,
2013-01-16 15:43:00,29.0,18.0,-100.00,NNE,30,6.0,13.0,61,0.00,,,-99.99,,2013-01-16 22:43:00,
2013-01-16 15:52:00,28.0,17.0,-100.00,NNE,21,12.0,16.0,65,0.00,,,-99.99,,2013-01-16 22:52:00,
2013-01-16 16:02:00,27.0,17.0,-100.00,NNE,13,11.0,13.0,68,0.00,,,-99.99,,2013-01-16 23:02:00,
2013-01-16 16:12:00,27.0,17.0,-100.00,North,11,9.0,12.0,67,0.00,,,-99.99,,2013-01-16 23:12:00,
2013-01-16 16:22:00,26.0,18.0,-100.00,NNE,13,7.0,11.0,70,0.00,,,-99.99,,2013-01-16 23:22:00,
2013-01-16 16:32:00,25.0,16.0,-100.00,NNE,13,6.0,10.0,68,0.00,,,-99.99,,2013-01-16 23:32:00,
2013-01-16 16:42:00,24.0,16.0,-100.00,NE,48,7.0,11.0,71,0.00,,,-99.99,,2013-01-16 23:42:00,
2013-01-16 16:52:00,23.0,15.0,-100.00,ENE,64,7.0,11.0,72,0.00,,,-99.99,,2013-01-16 23:52:00,
2013-01-16 17:02:00,22.0,14.0,-100.00,ENE,61,7.0,11.0,71,0.00,,,-99.99,,2013-01-17 00:02:00,
2013-01-16 17:12:00,22.0,14.0,-100.00,ENE,61,7.0,10.0,71,0.00,,,-99.99,,2013-01-17 00:12:00,
2013-01-16 17:22:00,22.0,13.0,-100.00,ENE,61,6.0,7.0,71,0.00,,,-99.99,,2013-01-17 00:22:00,
2013-01-16 17:32:00,22.0,13.0,-100.00,ENE,61,6.0,10.0,71,0.00,,,-99.99,,2013-01-17 00:32:00,
2013-01-16 17:42:00,22.0,14.0,-100.00,ENE,59,5.0,9.0,71,0.00,,,-99.99,,2013-01-17 00:42:00,
2013-01-16 17:52:00,22.0,14.0,-100.00,NE,49,4.0,8.0,71,0.00,,,-99.99,,2013-01-17 00:52:00,
2013-01-16 18:02:00,22.0,14.0,-100.00,NE,45,3.0,7.0,72,0.00,,,-99.99,,2013-01-17 01:02:00,
2013-01-16 18:12:00,22.0,13.0,-100.00,NE,47,3.0,5.0,70,0.00,,,-99.99,,2013-01-17 01:12:00,
2013-01-16 18:22:00,22.0,13.0,-100.00,NE,34,4.0,9.0,70,0.00,,,-99.99,,2013-01-17 01:22:00,
2013-01-16 18:32:00,23.0,14.0,-100.00,NNE,17,1.0,6.0,68,0.00,,,-99.99,,2013-01-17 01:32:00,
2013-01-16 18:42:00,27.0,13.0,-100.00,North,359,6.0,11.0,55,0.00,,,-99.99,,2013-01-17 01:42:00,
2013-01-16 18:52:00,25.0,13.0,-100.00,NNW,333,6.0,11.0,58,0.00,,,-99.99,,2013-01-17 01:52:00,
2013-01-16 19:02:00,25.0,13.0,-100.00,NNW,332,4.0,7.0,59,0.00,,,-99.99,,2013-01-17 02:02:00,
2013-01-16 19:12:00,24.0,12.0,-100.00,WNW,296,3.0,7.0,59,0.00,,,-99.99,,2013-01-17 02:12:00,
2013-01-16 19:22:00,24.0,12.0,-100.00,SE,134,1.0,3.0,59,0.00,,,-99.99,,2013-01-17 02:22:00,
2013-01-16 19:32:00,23.0,11.0,-100.00,NE,49,4.0,7.0,59,0.00,,,-99.99,,2013-01-17 02:32:00,
2013-01-16 19:42:00,23.0,11.0,-100.00,NE,49,4.0,7.0,59,0.00,,,-99.99,,2013-01-17 02:42:00,
2013-01-16 19:52:00,23.0,11.0,-100.00,NE,49,4.0,7.0,59,0.00,,,-99.99,,2013-01-17 02:52:00,
2013-01-16 20:02:00,22.0,11.0,-100.00,West,267,4.0,9.0,61,0.00,,,-99.99,,2013-01-17 03:02:00,
2013-01-16 20:12:00,20.0,10.0,-100.00,West,275,1.0,4.0,64,0.00,,,-99.99,,2013-01-17 03:12:00,
2013-01-16 20:22:00,21.0,10.0,-100.00,WNW,282,2.0,4.0,63,0.00,,,-99.99,,2013-01-17 03:22:00,
2013-01-16 20:32:00,24.0,11.0,-100.00,West,272,4.0,7.0,56,0.00,,,-99.99,,2013-01-17 03:32:00,
2013-01-16 20:42:00,21.0,10.0,-100.00,SSW,198,3.0,6.0,60,0.00,,,-99.99,,2013-01-17 03:42:00,
2013-01-16 20:52:00,21.0,10.0,-100.00,ESE,117,4.0,7.0,63,0.00,,,-99.99,,2013-01-17 03:52:00,
2013-01-16 21:02:00,21.0,11.0,-100.00,ESE,103,4.0,6.0,64,0.00,,,-99.99,,2013-01-17 04:02:00,
2013-01-16 21:12:00,21.0,11.0,-100.00,East,80,3.0,6.0,65,0.00,,,-99.99,,2013-01-17 04:12:00,
2013-01-16 21:22:00,19.0,9.0,-100.00,NNE,13,4.0,7.0,64,0.00,,,-99.99,,2013-01-17 04:22:00,
2013-01-16 21:32:00,18.0,9.0,-100.00,North,349,2.0,4.0,67,0.00,,,-99.99,,2013-01-17 04:32:00,
2013-01-16 21:42:00,20.0,10.0,-100.00,NNW,346,2.0,4.0,65,0.00,,,-99.99,,2013-01-17 04:42:00,
2013-01-16 21:52:00,21.0,9.0,-100.00,NNW,346,2.0,5.0,60,0.00,,,-99.99,,2013-01-17 04:52:00,
2013-01-16 22:04:00,21.0,8.0,-100.00,NW,325,4.0,6.0,57,0.00,,,-99.99,,2013-01-17 05:04:00,
2013-01-16 22:12:00,22.0,8.0,-100.00,NW,304,3.0,6.0,56,0.00,,,-99.99,,2013-01-17 05:12:00,
2013-01-16 22:22:00,25.0,7.0,-100.00,West,261,6.0,10.0,47,0.00,,,-99.99,,2013-01-17 05:22:00,
2013-01-16 22:33:00,19.0,8.0,-100.00,North,1,4.0,7.0,60,0.00,,,-99.99,,2013-01-17 05:33:00,
2013-01-16 22:42:00,22.0,8.0,-100.00,North,8,2.0,6.0,54,0.00,,,-99.99,,2013-01-17 05:42:00,
2013-01-16 22:52:00,22.0,8.0,-100.00,North,4,2.0,4.0,55,0.00,,,-99.99,,2013-01-17 05:52:00,
2013-01-16 23:02:00,23.0,8.0,-100.00,West,265,1.0,5.0,51,0.00,,,-99.99,,2013-01-17 06:02:00,
2013-01-16 23:12:00,24.0,8.0,-100.00,South,172,2.0,4.0,50,0.00,,,-99.99,,2013-01-17 06:12:00,
2013-01-16 23:22:00,24.0,8.0,-100.00,NE,48,3.0,5.0,50,0.00,,,-99.99,,2013-01-17 06:22:00,
2013-01-16 23:32:00,22.0,7.0,-100.00,NNE,24,3.0,5.0,53,0.00,,,-99.99,,2013-01-17 06:32:00,
2013-01-16 23:42:00,21.0,9.0,-100.00,NNE,23,4.0,7.0,59,0.00,,,-99.99,,2013-01-17 06:42:00,
2013-01-16 23:52:00,23.0,8.0,-100.00,NNW,347,3.0,6.0,51,0.00,,,-99.99,,2013-01-17 06:52:00,